Location: Treviso
(45.6669°N, 12.2430°E)
Time: 21:09:36
(UTC+01:00)

Envisat - Pass Details

Date: 30 November 2022
Orbit: 763 x 765 km, 98.2° (Epoch: 06 February)

Event Time Altitude Azimuth Distance (km) Brightness Sun altitude
Rises 05:31:28 0° 4° (N) 3,245 6.2 -20.1°
Reaches altitude 10° 05:34:02 10° 353° (N) 2,314 5.3 -19.6°
Enters shadow 05:36:14 21° 333° (NNW) 1,662 4.4 -19.3°
